GW5498 Weather Reports


Display with metric or nautical units.
time (UTC)temp
F
wind
direction
speed
MPH
gust
MPH
rain 1hr
in
rain 24hr
in
rain mn
in
humidity
%
barometer
mb
20260510223749 45 244 3.0 6.0 0.00 0.00 0.00 66 1013.3
20260510223248 45 183 2.0 5.0 0.00 0.00 0.00 67 1013.3
20260510222748 45 247 3.0 6.0 0.00 0.00 0.00 67 1013.5
20260510222248 45 266 2.0 6.0 0.00 0.00 0.00 67 1013.5
20260510221749 45 206 2.0 5.0 0.00 0.00 0.00 67 1013.6
20260510221248 45 227 2.0 5.0 0.00 0.00 0.00 66 1013.8
20260510220748 45 0 1.0 4.0 0.00 0.00 0.00 66 1013.8
20260510220248 45 223 2.0 5.0 0.00 0.00 0.00 66 1013.9
20260510215748 45 217 2.0 5.0 0.00 0.00 0.00 67 1014.0
20260510215244 45 251 2.0 5.0 0.00 0.00 0.00 67 1014.2
20260510214744 45 255 1.0 4.0 0.00 0.00 0.00 68 1014.2
20260510214244 45 254 0.0 3.0 0.00 0.00 0.00 68 1014.4
20260510213746 45 0 0.0 3.0 0.00 0.00 0.00 67 1014.4
20260510213241 45 262 0.0 3.0 0.00 0.00 0.00 66 1014.4
20260510212741 45 0 1.0 3.0 0.00 0.00 0.00 66 1014.4
20260510212241 46 0 1.0 3.0 0.00 0.00 0.00 65 1014.4
20260510211742 46 202 1.0 3.0 0.00 0.00 0.00 65 1014.4
20260510211243 46 225 1.0 3.0 0.00 0.00 0.00 65 1014.5
20260510210740 46 0 0.0 3.0 0.00 0.00 0.00 66 1014.5
20260510210238 46 0 0.0 3.0 0.00 0.00 0.00 66 1014.5
20260510205740 46 0 1.0 3.0 0.00 0.00 0.00 66 1014.5
20260510205236 46 198 0.0 3.0 0.00 0.00 0.00 66 1014.6
20260510204741 46 0 0.0 2.0 0.00 0.00 0.00 65 1014.6
20260510204237 46 0 0.0 3.0 0.00 0.00 0.00 65 1014.6
20260510203732 46 0 0.0 3.0 0.00 0.00 0.00 65 1014.6
20260510203234 46 0 0.0 3.0 0.00 0.00 0.00 65 1014.6
20260510202734 47 108 0.0 3.0 0.00 0.00 0.00 64 1014.7
20260510202234 47 0 0.0 3.0 0.00 0.00 0.00 64 1014.7
20260510201735 47 0 0.0 3.0 0.00 0.00 0.00 63 1014.7
20260510201234 47 0 0.0 3.0 0.00 0.00 0.00 63 1014.8
20260510200734 47 0 0.0 2.0 0.00 0.00 0.00 62 1014.8
20260510200235 48 140 0.0 2.0 0.00 0.00 0.00 62 1014.9
20260510195735 48 0 0.0 3.0 0.00 0.00 0.00 61 1014.9
20260510195235 48 0 0.0 3.0 0.00 0.00 0.00 61 1015.0
20260510194733 48 0 0.0 2.0 0.00 0.00 0.00 60 1015.0
20260510194233 49 0 0.0 3.0 0.00 0.00 0.00 59 1015.0
20260510193733 49 0 1.0 4.0 0.00 0.00 0.00 59 1015.0
20260510193232 49 122 1.0 4.0 0.00 0.00 0.00 58 1015.0
20260510192732 49 0 0.0 4.0 0.00 0.00 0.00 58 1014.9
20260510192233 49 99 1.0 4.0 0.00 0.00 0.00 58 1015.0
20260510191732 49 186 1.0 4.0 0.00 0.00 0.00 57 1015.1
20260510191233 50 114 1.0 4.0 0.00 0.00 0.00 57 1015.1
20260510190732 50 0 1.0 4.0 0.00 0.00 0.00 56 1015.2
20260510190233 50 98 1.0 4.0 0.00 0.00 0.00 56 1015.2
20260510185733 51 0 1.0 4.0 0.00 0.00 0.00 56 1015.2
20260510185230 51 0 1.0 3.0 0.00 0.00 0.00 55 1015.3
20260510184730 51 0 1.0 4.0 0.00 0.00 0.00 54 1015.3
20260510184229 51 133 1.0 4.0 0.00 0.00 0.00 54 1015.4
20260510183729 51 0 1.0 4.0 0.00 0.00 0.00 54 1015.4
20260510183225 52 119 1.0 4.0 0.00 0.00 0.00 54 1015.5
20260510182724 52 110 1.0 5.0 0.00 0.00 0.00 54 1015.5
20260510182225 52 74 1.0 5.0 0.00 0.00 0.00 53 1015.5
20260510181724 53 0 1.0 5.0 0.00 0.00 0.00 53 1015.5
20260510181225 53 0 1.0 5.0 0.00 0.00 0.00 52 1015.6
20260510180725 53 77 2.0 8.0 0.00 0.00 0.00 51 1015.6
20260510180227 53 33 2.0 8.0 0.00 0.00 0.00 51 1015.6
20260510175724 53 141 2.0 6.0 0.00 0.00 0.00 51 1015.8
20260510175222 54 0 1.0 6.0 0.00 0.00 0.00 50 1015.8
20260510174723 53 0 1.0 5.0 0.00 0.00 0.00 50 1015.9
20260510174223 53 0 1.0 6.0 0.00 0.00 0.00 51 1015.9
20260510173723 52 347 2.0 6.0 0.00 0.00 0.00 52 1015.9
20260510173220 53 198 1.0 6.0 0.00 0.00 0.00 52 1016.0
20260510164718 54 305 2.0 6.0 0.00 0.00 0.00 50 1016.4
20260510164216 55 33 2.0 6.0 0.00 0.00 0.00 49 1016.4
20260510163715 54 350 2.0 6.0 0.00 0.00 0.00 50 1016.5
20260510163215 53 50 2.0 6.0 0.00 0.00 0.00 50 1016.6
20260510162715 54 53 2.0 6.0 0.00 0.00 0.00 49 1016.7
20260510162217 54 134 2.0 8.0 0.00 0.00 0.00 50 1016.7
20260510161715 55 80 2.0 8.0 0.00 0.00 0.00 49 1016.9
20260510161213 56 23 2.0 7.0 0.00 0.00 0.00 48 1016.9
20260510160713 56 121 2.0 7.0 0.00 0.00 0.00 47 1016.9
20260510160213 56 8 2.0 7.0 0.00 0.00 0.00 47 1016.9
20260510155644 56 345 2.0 7.0 0.00 0.00 0.00 47 1017.0
20260510155144 55 224 2.0 8.0 0.00 0.00 0.00 48 1017.1
20260510154645 55 129 3.0 10.0 0.00 0.00 0.00 48 1017.2
20260510154143 54 25 3.0 10.0 0.00 0.00 0.00 49 1017.3
20260510153643 54 15 3.0 8.0 0.00 0.00 0.00 48 1017.2
20260510153145 55 54 3.0 9.0 0.00 0.00 0.00 47 1017.3
20260510152644 55 268 3.0 9.0 0.00 0.00 0.00 48 1017.4
20260510152144 55 11 3.0 9.0 0.00 0.00 0.00 47 1017.4
20260510151645 56 359 2.0 8.0 0.00 0.00 0.00 47 1017.4
20260510151145 55 60 2.0 7.0 0.00 0.00 0.00 46 1017.4
20260510150646 56 342 2.0 9.0 0.00 0.00 0.00 47 1017.5
20260510150144 56 0 3.0 9.0 0.00 0.00 0.00 46 1017.6
20260510145634 56 5 3.0 8.0 0.00 0.00 0.00 46 1017.6
20260510145133 56 305 3.0 12.0 0.00 0.00 0.00 47 1017.7
20260510144851 55 58 3.0 12.0 0.00 0.00 0.00 47 1017.8
20260510143904 56 19 3.0 11.0 0.00 0.00 0.00 47 1018.0
20260510143354 56 49 3.0 9.0 0.00 0.00 0.00 47 1018.0
20260510142406 56 359 3.0 9.0 0.00 0.00 0.00 46 1018.1
20260510141900 55 333 3.0 9.0 0.00 0.00 0.00 46 1018.2
20260510141359 55 7 3.0 9.0 0.00 0.00 0.00 48 1018.2
20260510140631 55 53 3.0 9.0 0.00 0.00 0.00 51 1018.2
20260510140129 55 355 4.0 9.0 0.00 0.00 0.00 50 1018.3
20260510135629 55 278 4.0 9.0 0.00 0.00 0.00 49 1018.3
20260510135128 55 293 3.0 9.0 0.00 0.00 0.00 48 1018.3
20260510134629 55 118 3.0 8.0 0.00 0.00 0.00 46 1018.3
20260510134127 55 336 3.0 8.0 0.00 0.00 0.00 50 1018.4
20260510133627 55 11 3.0 10.0 0.00 0.00 0.00 50 1018.5
20260510133128 56 329 3.0 10.0 0.00 0.00 0.00 48 1018.5
20260510132627 56 358 3.0 9.0 0.00 0.00 0.00 47 1018.5
20260510132127 56 79 3.0 8.0 0.00 0.00 0.00 47 1018.6
20260510131628 56 26 4.0 12.0 0.00 0.00 0.00 47 1018.6
20260510131126 55 325 4.0 12.0 0.00 0.00 0.00 48 1018.6
20260510130625 54 312 3.0 9.0 0.00 0.00 0.00 52 1018.7
20260510130126 54 27 4.0 9.0 0.00 0.00 0.00 50 1018.9
20260510125622 55 87 4.0 9.0 0.00 0.00 0.00 51 1018.9
20260510125122 55 341 4.0 8.0 0.00 0.00 0.00 49 1018.8
20260510124622 55 51 4.0 8.0 0.00 0.00 0.00 50 1019.0
20260510124121 55 350 3.0 8.0 0.00 0.00 0.00 49 1019.0
20260510123621 55 344 3.0 10.0 0.00 0.00 0.00 49 1019.1
20260510123121 55 135 3.0 10.0 0.00 0.00 0.00 49 1019.0
20260510122623 55 34 4.0 11.0 0.00 0.00 0.00 50 1019.1
20260510122122 55 8 4.0 11.0 0.00 0.00 0.00 50 1019.2
20260510121623 55 355 3.0 9.0 0.00 0.00 0.00 51 1019.2
20260510121121 55 10 3.0 9.0 0.00 0.00 0.00 50 1019.3
20260510120625 56 336 3.0 8.0 0.00 0.00 0.00 49 1019.3
20260510120115 55 347 3.0 7.0 0.00 0.00 0.00 50 1019.2
20260510115613 54 192 3.0 9.0 0.00 0.00 0.00 51 1019.3
20260510115113 53 42 3.0 9.0 0.00 0.00 0.00 55 1019.5
20260510114612 53 26 4.0 10.0 0.00 0.00 0.00 55 1019.5
20260510114113 53 338 4.0 11.0 0.00 0.00 0.00 55 1019.5
20260510113613 54 342 4.0 11.0 0.00 0.00 0.00 54 1019.6
20260510113114 54 19 4.0 9.0 0.00 0.00 0.00 53 1019.7
20260510112614 55 346 4.0 10.0 0.00 0.00 0.00 54 1019.7
20260510112113 54 105 4.0 10.0 0.00 0.00 0.00 54 1019.8
20260510111611 53 52 4.0 9.0 0.00 0.00 0.00 58 1019.8
20260510111112 53 21 4.0 8.0 0.00 0.00 0.00 58 1019.9
20260510110612 53 28 4.0 10.0 0.00 0.00 0.00 58 1020.0
20260510110108 52 25 3.0 10.0 0.00 0.00 0.00 58 1020.0
20260510105607 52 0 3.0 9.0 0.00 0.00 0.00 58 1020.1
20260510105108 52 31 4.0 11.0 0.00 0.00 0.00 58 1020.1
20260510104608 53 36 4.0 11.0 0.00 0.00 0.00 58 1020.2
20260510104108 53 307 3.0 9.0 0.00 0.00 0.00 57 1020.1
20260510103608 54 8 4.0 11.0 0.00 0.00 0.00 57 1020.2
20260510103108 53 11 4.0 11.0 0.00 0.00 0.00 55 1020.2
20260510102607 53 348 3.0 8.0 0.00 0.00 0.00 55 1020.3
20260510102102 52 303 3.0 8.0 0.00 0.00 0.00 58 1020.3
20260510101602 52 334 4.0 9.0 0.00 0.00 0.00 58 1020.4
20260510101103 52 348 4.0 9.0 0.00 0.00 0.00 58 1020.5
20260510100604 52 10 4.0 11.0 0.00 0.00 0.00 58 1020.5
20260510100326 51 282 4.0 11.0 0.00 0.00 0.00 60 1020.5
20260510095823 50 46 3.0 9.0 0.00 0.00 0.00 62 1020.6
20260510095327 50 21 4.0 9.0 0.00 0.00 0.00 62 1020.7
20260510094823 50 9 4.0 9.0 0.00 0.00 0.00 62 1020.8
20260510093824 50 358 4.0 9.0 0.00 0.00 0.00 63 1020.8
20260510093325 50 346 4.0 9.0 0.00 0.00 0.00 65 1020.7
20260510092827 50 51 4.0 9.0 0.00 0.00 0.00 65 1020.8
20260510092104 50 11 3.0 9.0 0.00 0.00 0.00 67 1020.8
20260510091602 49 82 4.0 10.0 0.00 0.00 0.00 70 1020.9
20260510091102 49 18 4.0 10.0 0.00 0.00 0.00 70 1020.9
20260510090602 50 50 3.0 9.0 0.00 0.00 0.00 70 1021.0
20260510085602 49 21 3.0 8.0 0.00 0.00 0.00 70 1021.0
20260510085102 49 300 3.0 10.0 0.00 0.00 0.00 72 1021.0
20260510084603 48 46 3.0 10.0 0.00 0.00 0.00 71 1021.1
20260510084102 48 13 2.0 9.0 0.00 0.00 0.00 71 1021.1
20260510083603 48 0 3.0 9.0 0.00 0.00 0.00 71 1021.1
20260510083102 48 15 3.0 9.0 0.00 0.00 0.00 72 1021.1
20260510082601 48 41 3.0 10.0 0.00 0.00 0.00 74 1021.1
20260510082101 47 350 4.0 13.0 0.00 0.00 0.00 74 1021.1
20260510081556 47 350 3.0 13.0 0.00 0.00 0.00 74 1021.1
20260510081056 47 40 3.0 8.0 0.00 0.00 0.00 74 1021.1
20260510080555 47 10 3.0 8.0 0.00 0.00 0.00 74 1021.1
20260510080056 47 60 3.0 8.0 0.00 0.00 0.00 75 1021.0
20260510075557 47 326 3.0 9.0 0.00 0.00 0.00 75 1021.0
20260510075057 47 335 4.0 9.0 0.00 0.00 0.00 76 1021.1
20260510074557 47 96 4.0 9.0 0.00 0.00 0.00 76 1021.0
20260510074058 47 29 3.0 12.0 0.00 0.00 0.00 76 1021.1
20260510073557 47 109 4.0 12.0 0.00 0.00 0.00 77 1021.0
20260510073054 47 67 4.0 10.0 0.00 0.00 0.00 76 1021.0
20260510072553 47 358 4.0 13.0 0.00 0.00 0.00 76 1021.0
20260510072053 47 315 4.0 13.0 0.00 0.00 0.00 76 1020.9
20260510071552 47 311 4.0 9.0 0.00 0.00 0.00 78 1020.9
20260510071052 47 354 4.0 9.0 0.00 0.00 0.00 78 1020.9
20260510070552 46 301 4.0 11.0 0.00 0.00 0.00 79 1020.8
20260510070047 46 309 4.0 11.0 0.00 0.00 0.00 80 1020.8
20260510065549 46 321 4.0 9.0 0.00 0.00 0.00 81 1020.7
20260510065049 46 1 3.0 8.0 0.00 0.00 0.00 82 1020.8
20260510064549 45 0 3.0 9.0 0.00 0.00 0.00 83 1020.8
20260510064048 45 25 3.0 9.0 0.00 0.00 0.00 83 1020.8
20260510063548 45 14 3.0 9.0 0.00 0.00 0.00 83 1020.9
20260510063048 45 0 3.0 9.0 0.00 0.00 0.00 83 1020.8
20260510062545 45 351 3.0 10.0 0.00 0.00 0.00 84 1020.7
20260510062044 44 53 3.0 10.0 0.00 0.00 0.00 85 1020.8
20260510061544 44 51 3.0 8.0 0.00 0.00 0.00 85 1020.8
20260510061043 44 7 3.0 8.0 0.00 0.00 0.00 86 1020.8
20260510060544 44 268 3.0 8.0 0.00 0.00 0.00 87 1020.8
20260510060310 44 26 3.0 10.0 0.00 0.00 0.00 87 1020.9
20260510055808 44 317 4.0 10.0 0.00 0.00 0.00 87 1020.8
20260510055309 43 337 3.0 8.0 0.00 0.00 0.00 88 1020.8
20260510052043 43 334 3.0 8.0 0.00 0.00 0.00 88 1020.8
20260510051539 43 340 3.0 9.0 0.00 0.00 0.00 88 1020.8
20260510051033 42 323 2.0 9.0 0.00 0.00 0.00 88 1020.8
20260510050530 42 1 3.0 6.0 0.00 0.00 0.00 88 1020.9
20260510050020 43 332 3.0 6.0 0.00 0.00 0.00 87 1021.0
20260510045521 43 349 3.0 8.0 0.00 0.00 0.00 87 1021.0
20260510045019 43 4 3.0 8.0 0.00 0.00 0.00 86 1021.0
20260510044519 44 324 3.0 8.0 0.00 0.00 0.00 86 1021.0
20260510044019 44 344 3.0 7.0 0.00 0.00 0.00 85 1020.9
20260510043519 44 318 3.0 7.0 0.00 0.00 0.00 84 1021.0
20260510043016 44 344 3.0 7.0 0.00 0.00 0.00 84 1020.9
20260510042515 45 341 3.0 7.0 0.00 0.00 0.00 84 1020.8
20260510042016 45 346 4.0 7.0 0.00 0.00 0.00 84 1020.8
20260510041516 45 39 4.0 7.0 0.00 0.00 0.00 84 1020.8
20260510041015 45 343 3.0 5.0 0.00 0.00 0.00 84 1020.8
20260510040515 45 68 3.0 8.0 0.00 0.00 0.00 84 1020.9
20260510040240 45 342 3.0 8.0 0.00 0.00 0.00 84 1021.0
20260510035736 45 355 4.0 8.0 0.00 0.00 0.00 84 1021.0
20260510035015 45 28 3.0 9.0 0.00 0.00 0.00 84 1021.0
20260510034516 45 52 3.0 9.0 0.00 0.00 0.00 84 1020.9
20260510034010 45 48 3.0 8.0 0.00 0.00 0.00 84 1021.0
20260510033510 45 346 4.0 9.0 0.00 0.00 0.00 84 1021.0
20260510033242 45 352 4.0 9.0 0.00 0.00 0.00 84 1020.9
20260510032731 45 1 3.0 9.0 0.00 0.00 0.00 84 1021.0
20260510032230 45 6 3.0 7.0 0.00 0.00 0.00 84 1021.1
20260510031505 45 350 3.0 7.0 0.00 0.00 0.00 85 1021.1
20260510031232 45 353 3.0 9.0 0.00 0.00 0.00 85 1021.1
20260510030504 45 33 3.0 9.0 0.00 0.00 0.00 85 1021.1
20260510025958 45 32 3.0 8.0 0.00 0.00 0.00 86 1021.2
20260510025458 45 359 4.0 8.0 0.00 0.00 0.00 86 1021.2
20260510024953 45 2 4.0 8.0 0.00 0.00 0.00 86 1021.1
20260510024452 45 0 3.0 8.0 0.00 0.00 0.00 86 1021.2
20260510023953 46 351 3.0 8.0 0.00 0.00 0.00 86 1021.3
20260510023453 46 352 3.0 8.0 0.00 0.00 0.00 86 1021.3
20260510023215 46 321 3.0 6.0 0.00 0.00 0.00 87 1021.2
20260510022450 46 328 3.0 7.0 0.00 0.00 0.00 87 1021.2
20260510021950 46 348 3.0 7.0 0.00 0.00 0.00 87 1021.2
20260510021450 46 355 3.0 7.0 0.00 0.00 0.00 87 1021.1
20260510020948 46 29 3.0 6.0 0.00 0.00 0.00 87 1021.0
20260510020449 46 4 3.0 6.0 0.00 0.00 0.00 87 1021.1
20260510015949 46 39 2.0 7.0 0.00 0.00 0.00 87 1021.1
20260510015448 46 358 3.0 7.0 0.00 0.00 0.00 87 1021.0
20260510014949 46 11 3.0 9.0 0.00 0.00 0.00 88 1021.0
20260510014442 46 31 3.0 9.0 0.00 0.00 0.00 88 1021.0
20260510013942 46 1 3.0 9.0 0.00 0.00 0.00 88 1021.1
20260510013438 46 357 3.0 9.0 0.00 0.00 0.00 88 1021.1
20260510012939 46 4 3.0 9.0 0.00 0.00 0.00 88 1021.1
20260510012439 46 323 2.0 6.0 0.00 0.00 0.00 88 1021.1
20260510011939 46 351 2.0 10.0 0.00 0.00 0.00 88 1021.1
20260510011439 46 20 3.0 10.0 0.00 0.00 0.00 88 1021.0
20260510010940 46 63 4.0 10.0 0.00 0.00 0.00 88 1021.0
20260510010440 46 42 4.0 10.0 0.00 0.00 0.00 88 1021.0
20260510010206 46 14 3.0 10.0 0.00 0.00 0.00 88 1021.0
20260510005435 46 32 3.0 9.0 0.00 0.00 0.00 88 1021.0
20260510004935 46 357 3.0 9.0 0.00 0.00 0.00 88 1021.0
20260510004435 46 343 3.0 10.0 0.00 0.00 0.00 88 1021.1
20260510004202 46 338 3.0 10.0 0.00 0.00 0.00 89 1021.1
20260510003435 46 6 3.0 8.0 0.00 0.00 0.00 89 1021.1
20260510003154 46 39 4.0 9.0 0.00 0.00 0.00 89 1021.1
20260510002431 46 354 4.0 13.0 0.00 0.00 0.00 89 1021.0
20260510001431 46 23 4.0 10.0 0.00 0.00 0.00 89 1021.1
20260510001153 46 355 4.0 10.0 0.00 0.00 0.00 89 1021.1
20260510000654 46 339 4.0 9.0 0.00 0.00 0.00 89 1021.2
20260509235930 46 4 4.0 12.0 0.00 0.00 0.00 90 1021.3
20260509235427 46 7 4.0 12.0 0.00 0.00 0.00 90 1021.3
20260509234929 46 15 3.0 10.0 0.00 0.00 0.00 90 1021.3
20260509234656 46 358 3.0 9.0 0.00 0.00 0.00 91 1021.4
20260509233929 46 53 3.0 10.0 0.00 0.00 0.00 91 1021.4
20260509233429 46 347 3.0 10.0 0.00 0.00 0.00 91 1021.5
20260509232930 46 324 4.0 9.0 0.00 0.00 0.00 91 1021.5
20260509232429 46 7 3.0 9.0 0.00 0.00 0.00 92 1021.5
20260509231927 46 25 3.0 9.0 0.00 0.00 0.00 92 1021.4
20260509231426 46 60 4.0 9.0 0.00 0.00 0.00 92 1021.4
20260509230924 46 352 4.0 10.0 0.00 0.00 0.00 92 1021.4
20260509230423 46 355 4.0 11.0 0.00 0.00 0.00 92 1021.3
20260509225924 46 8 4.0 12.0 0.00 0.00 0.00 92 1021.3
20260509225422 46 38 4.0 12.0 0.00 0.00 0.00 92 1021.4
20260509224922 46 358 4.0 9.0 0.00 0.00 0.00 92 1021.3
20260509224421 46 331 4.0 9.0 0.00 0.00 0.00 92 1021.2
20260509223921 47 330 4.0 9.0 0.00 0.00 0.00 92 1021.1